TimeEST,TemperatureF,Dew PointF,Humidity,Sea Level PressureIn,VisibilityMPH,Wind Direction,Wind SpeedMPH,Gust SpeedMPH,PrecipitationIn,Events,Conditions,WindDirDegrees,DateUTC
12:00 AM,79,74,81,29.81,,Calm,Calm,,,,,,2012-12-05 14:00:00
12:30 AM,78.8,73.4,83,29.80,6.2,West,4.6,-,N/A,,Scattered Clouds,280,2012-12-05 14:30:00
1:00 AM,79,75,83,29.81,,West,3.5,,,,,270,2012-12-05 15:00:00
1:00 AM,78.8,75.2,89,29.80,6.2,West,3.5,-,N/A,,Scattered Clouds,270,2012-12-05 15:00:00
1:30 AM,78.8,75.2,89,29.80,6.2,SW,2.3,-,N/A,,Partly Cloudy,230,2012-12-05 15:30:00
2:00 AM,78.8,75.2,89,29.80,6.2,SSE,6.9,-,N/A,,Scattered Clouds,160,2012-12-05 16:00:00
2:30 AM,78.8,73.4,83,29.80,6.2,SSE,10.4,-,N/A,,Partly Cloudy,160,2012-12-05 16:30:00
3:00 AM,79,74,79,29.81,,SSE,8.1,,,,,160,2012-12-05 17:00:00
3:00 AM,78.8,73.4,83,29.80,6.2,SSE,8.1,-,N/A,,Partly Cloudy,160,2012-12-05 17:00:00
3:30 AM,78.8,73.4,83,29.80,6.2,SSE,6.9,-,N/A,,Partly Cloudy,160,2012-12-05 17:30:00
4:00 AM,78,74,83,29.83,,North,2.3,,,,,0,2012-12-05 18:00:00
4:00 AM,77.0,73.4,89,29.83,6.2,North,2.3,-,N/A,,Partly Cloudy,360,2012-12-05 18:00:00
4:30 AM,78.8,73.4,83,29.83,6.2,SSE,9.2,-,N/A,,Partly Cloudy,150,2012-12-05 18:30:00
5:00 AM,77.0,73.4,89,29.83,6.2,West,4.6,-,N/A,,Scattered Clouds,270,2012-12-05 19:00:00
5:30 AM,77.0,73.4,89,29.86,6.2,Calm,Calm,-,N/A,,Mostly Cloudy,0,2012-12-05 19:30:00
6:00 AM,77,73,85,29.88,16,Calm,Calm,,,,Partly Cloudy,,2012-12-05 20:00:00
6:00 AM,77.0,73.4,89,29.86,6.2,Calm,Calm,-,N/A,,Scattered Clouds,0,2012-12-05 20:00:00
6:30 AM,78.8,73.4,83,29.89,6.2,Calm,Calm,-,N/A,,Partly Cloudy,0,2012-12-05 20:30:00
7:00 AM,81,73,72,29.91,,SSE,5.8,,,,,150,2012-12-05 21:00:00
7:00 AM,80.6,73.4,79,29.89,6.2,SSE,5.8,-,N/A,,Scattered Clouds,150,2012-12-05 21:00:00
7:30 AM,82.4,73.4,74,29.89,6.2,SE,2.3,-,N/A,,Scattered Clouds,140,2012-12-05 21:30:00
8:00 AM,84.2,73.4,70,29.89,6.2,SE,4.6,-,N/A,,Scattered Clouds,140,2012-12-05 22:00:00
8:30 AM,86.0,77.0,74,29.92,6.2,NE,5.8,-,N/A,,Partly Cloudy,50,2012-12-05 22:30:00
9:00 AM,88,76,60,29.93,19,NE,6.9,,,,Partly Cloudy,50,2012-12-05 23:00:00
9:00 AM,87.8,75.2,66,29.92,6.2,NE,6.9,-,N/A,,Scattered Clouds,50,2012-12-05 23:00:00
9:30 AM,86.0,77.0,74,29.92,6.2,NE,8.1,-,N/A,,Scattered Clouds,40,2012-12-05 23:30:00
10:00 AM,88,77,63,29.94,,NE,8.1,,,,,50,2012-12-06 00:00:00
10:00 AM,87.8,77.0,70,29.92,6.2,NE,8.1,-,N/A,,Scattered Clouds,50,2012-12-06 00:00:00
10:30 AM,87.8,77.0,70,29.92,6.2,NE,10.4,-,N/A,,Partly Cloudy,50,2012-12-06 00:30:00
11:00 AM,87.8,77.0,70,29.92,6.2,ENE,10.4,-,N/A,,Partly Cloudy,60,2012-12-06 01:00:00
11:30 AM,87.8,77.0,70,29.92,6.2,NE,11.5,-,N/A,,Partly Cloudy,50,2012-12-06 01:30:00
12:00 PM,89,77,59,29.91,19,NE,10.4,,,,Partly Cloudy,50,2012-12-06 02:00:00
12:00 PM,89.6,77.0,66,29.89,6.2,NE,10.4,-,N/A,,Partly Cloudy,50,2012-12-06 02:00:00
12:30 PM,89.6,77.0,66,29.89,6.2,NE,10.4,-,N/A,,Partly Cloudy,50,2012-12-06 02:30:00
1:00 PM,89,78,62,29.90,,NE,11.5,,,,,50,2012-12-06 03:00:00
1:00 PM,89.6,77.0,66,29.89,6.2,NE,11.5,-,N/A,,Partly Cloudy,50,2012-12-06 03:00:00
1:30 PM,89.6,77.0,66,29.86,6.2,ENE,12.7,-,N/A,,Partly Cloudy,60,2012-12-06 03:30:00
2:00 PM,87.8,77.0,70,29.86,6.2,NE,11.5,-,N/A,,Partly Cloudy,40,2012-12-06 04:00:00
2:30 PM,87.8,77.0,70,29.86,6.2,NE,11.5,-,N/A,,Partly Cloudy,40,2012-12-06 04:30:00
3:00 PM,88,77,62,29.86,19,NE,11.5,,,,Partly Cloudy,50,2012-12-06 05:00:00
3:00 PM,87.8,77.0,70,29.86,6.2,NE,11.5,-,N/A,,Partly Cloudy,50,2012-12-06 05:00:00
3:30 PM,86.0,77.0,74,29.83,6.2,ENE,11.5,-,N/A,,Partly Cloudy,70,2012-12-06 05:30:00
4:00 PM,85,77,71,29.85,,ENE,11.5,,,,,60,2012-12-06 06:00:00
4:00 PM,86.0,77.0,74,29.83,6.2,ENE,11.5,-,N/A,,Partly Cloudy,60,2012-12-06 06:00:00
4:30 PM,86.0,77.0,74,29.83,6.2,ENE,11.5,-,N/A,,Scattered Clouds,60,2012-12-06 06:30:00
5:00 PM,86.0,77.0,74,29.86,6.2,ENE,10.4,-,N/A,,Mostly Cloudy,60,2012-12-06 07:00:00
5:30 PM,84.2,77.0,79,29.86,6.2,ENE,8.1,-,N/A,,Mostly Cloudy,60,2012-12-06 07:30:00
6:00 PM,84.2,77.0,79,29.86,6.2,ENE,10.4,-,N/A,,Mostly Cloudy,70,2012-12-06 08:00:00
6:30 PM,84.2,77.0,79,29.86,6.2,ENE,9.2,-,N/A,,Mostly Cloudy,60,2012-12-06 08:30:00
7:00 PM,83,76,74,29.89,,East,8.1,,,,,80,2012-12-06 09:00:00
7:00 PM,84.2,75.2,74,29.89,6.2,East,8.1,-,N/A,,Mostly Cloudy,80,2012-12-06 09:00:00
7:30 PM,84.2,75.2,74,29.89,6.2,East,8.1,-,N/A,,Mostly Cloudy,100,2012-12-06 09:30:00
8:00 PM,84.2,77.0,79,29.89,6.2,East,9.2,-,N/A,,Mostly Cloudy,100,2012-12-06 10:00:00
8:30 PM,82.4,75.2,79,29.89,6.2,East,8.1,-,N/A,,Mostly Cloudy,100,2012-12-06 10:30:00
9:00 PM,83,76,73,29.92,,ESE,8.1,,,,,110,2012-12-06 11:00:00
9:00 PM,82.4,75.2,79,29.92,6.2,ESE,8.1,-,N/A,,Mostly Cloudy,110,2012-12-06 11:00:00
9:30 PM,82.4,75.2,79,29.92,6.2,SE,8.1,-,N/A,,Mostly Cloudy,130,2012-12-06 11:30:00
10:00 PM,81,76,80,29.94,,Calm,Calm,,,,,,2012-12-06 12:00:00
10:00 PM,80.6,75.2,84,29.92,6.2,Calm,Calm,-,N/A,,Mostly Cloudy,0,2012-12-06 12:00:00
10:30 PM,82.4,75.2,79,29.95,6.2,SSE,4.6,-,N/A,,Mostly Cloudy,150,2012-12-06 12:30:00
11:00 PM,82.4,75.2,79,29.95,6.2,SSE,3.5,-,N/A,,Mostly Cloudy,160,2012-12-06 13:00:00
11:30 PM,80.6,75.2,84,29.92,6.2,SSE,5.8,-,N/A,,Scattered Clouds,150,2012-12-06 13:30:00